RH
4 4 4 3 4 4 4 4 4 5 5 5 5 5 5 5 5 4 4 4 4 4 4 4 3 4 3 4 4 4 5 5 6 5 4 4 5 5 5 6 6 11 26 41 44 44 45 44 45 44 45 42 39 37 32 33 36 42 54 55 45 51 57 54 65 61 58 74 69 66 65 66 79 70 64 72 72 74 73 72 77 75 73 74 68 59 58 60
5 5 4 4 4 3 3 4 4 4 5 5 5 5 5 5 4 4 4 4 4 4 4 3 3 4 3 4 4 5 7 7 7 6 6 5 5 5 5 5 6 8 18 36 43 42 42 41 43 45 44 41 40 36 30 32 34 41 52 52 48 54 55 50 55 50 55 65 57 67 70 65 79 74 66 72 71 70 74 76 76 74 72 72 62 56 60 60
7 7 6 5 4 4 4 3 4 4 4 5 5 5 5 5 4 4 4 4 4 4 4 3 4 3 4 4 3 6 8 8 7 7 7 6 6 5 5 5 6 7 12 30 42 40 38 38 42 45 43 40 38 33 29 33 36 41 47 51 50 51 53 49 47 47 54 58 53 65 71 67 75 72 67 72 73 77 87 85 81 77 70 68 59 56 62 61
9 9 8 7 6 5 5 4 4 4 4 4 5 5 5 5 5 4 4 4 4 4 3 3 3 3 4 4 4 6 9 10 7 7 8 8 8 6 6 5 5 7 8 23 36 35 34 37 42 44 41 37 33 31 33 35 38 43 46 50 49 47 56 53 45 47 53 54 52 60 72 74 73 69 67 72 77 84 95 90 86 80 63 59 54 57 64 63
11 10 9 9 8 7 6 5 5 4 4 3 4 4 5 5 4 4 4 4 4 4 3 3 3 3 4 4 4 6 11 17 12 7 10 10 10 9 8 5 5 7 6 16 29 31 34 40 42 43 39 32 31 34 36 34 35 43 45 44 44 46 56 52 44 48 50 50 52 57 71 75 69 68 68 76 82 82 89 85 80 72 57 54 50 56 64 64
12 11 10 10 9 9 7 7 6 5 4 4 4 4 4 4 4 4 4 4 4 3 3 3 3 3 4 4 4 6 12 20 13 7 10 9 9 11 10 7 4 6 6 11 23 28 33 42 42 39 35 30 33 36 34 33 35 42 45 42 40 42 47 46 44 48 46 48 52 54 64 70 69 73 72 78 84 79 79 77 75 64 53 56 53 57 64 64
12 12 11 11 10 9 9 8 8 7 6 5 4 4 3 4 4 4 4 4 4 3 3 3 3 3 3 4 4 5 9 12 8 7 10 9 9 11 11 9 5 5 6 7 17 24 30 42 42 36 33 29 34 34 31 37 40 41 41 36 36 36 37 40 43 44 44 45 49 50 58 67 70 75 74 75 81 79 75 74 75 66 54 52 52 60 65 66
13 12 12 11 10 10 9 9 9 8 8 6 5 5 4 4 3 4 3 4 3 3 3 3 3 3 3 4 4 5 6 7 6 7 8 8 9 10 10 10 6 5 6 6 14 21 27 38 40 35 31 29 34 33 30 38 44 43 38 32 32 33 33 38 40 39 41 43 48 49 53 63 66 68 70 71 77 77 74 74 74 72 63 50 50 61 63 65
14 13 13 12 11 10 10 9 9 9 9 8 7 6 5 4 4 3 3 3 3 3 3 3 3 3 3 4 4 5 6 6 6 7 7 8 8 9 10 9 6 5 5 6 12 20 26 33 36 33 29 30 34 29 29 38 43 41 36 32 31 29 31 35 37 36 38 39 43 48 52 58 60 63 67 68 74 74 71 74 74 74 65 50 52 62 62 63
15 14 13 13 13 11 10 9 9 9 9 9 8 8 7 6 5 4 4 4 3 3 3 3 3 3 4 4 5 5 7 7 6 7 7 8 8 9 10 9 7 5 5 6 10 18 25 31 34 32 31 32 32 26 31 40 42 40 34 31 28 27 30 33 34 32 32 35 35 42 51 52 53 67 73 66 69 73 70 74 76 71 59 50 55 61 61 63
14 14 14 14 13 13 11 10 9 10 9 9 9 9 8 7 7 6 6 5 5 4 4 4 4 4 4 4 5 5 7 7 6 7 7 8 8 9 9 9 8 5 6 6 9 16 24 31 33 33 33 32 29 26 32 40 42 40 34 33 30 25 29 30 31 28 28 33 27 33 52 49 45 61 70 62 66 71 68 73 77 71 58 51 57 61 61 62
13 14 14 14 14 13 13 11 10 10 10 9 9 9 9 8 8 7 7 7 7 7 6 6 6 6 6 6 6 5 6 7 6 7 7 8 8 9 9 9 8 5 5 6 9 14 21 29 32 32 32 30 28 26 32 36 37 38 32 35 35 30 34 29 26 26 24 27 22 31 55 54 43 47 55 58 65 68 66 72 76 73 64 53 57 62 62 60
11 12 13 13 14 13 13 12 11 11 10 10 9 9 9 8 8 8 8 8 8 8 8 8 8 8 7 7 7 6 6 6 7 7 7 9 8 9 10 9 9 6 5 6 9 12 18 26 28 30 30 29 28 26 30 30 29 37 31 29 34 38 45 32 21 24 21 23 22 26 47 55 46 41 45 52 60 66 67 71 74 75 70 59 58 63 64 61
12 11 11 12 13 13 13 13 12 12 11 10 9 9 9 9 8 8 8 8 8 9 9 9 8 8 8 9 9 7 7 7 7 7 8 9 9 10 11 10 10 7 6 6 8 12 16 22 24 27 28 28 29 24 26 26 27 37 32 30 36 35 38 28 20 23 21 22 19 23 42 53 46 37 40 44 49 61 67 70 73 74 75 66 60 64 65 63
13 12 11 10 11 12 13 13 13 12 12 12 10 9 9 9 9 9 9 9 9 9 9 9 9 9 9 10 10 8 8 8 8 8 9 10 10 11 11 11 11 8 6 6 8 12 15 19 22 27 29 28 28 24 22 23 27 34 29 30 35 29 29 28 22 20 21 21 17 23 38 48 45 35 38 42 42 51 60 68 71 72 77 71 63 64 66 67
14 13 11 10 10 11 11 12 13 12 12 13 12 11 10 9 10 9 10 10 10 10 10 10 10 9 10 11 11 10 9 9 9 9 9 11 10 11 11 11 12 8 6 7 9 13 15 19 24 27 30 28 26 24 21 19 23 30 28 26 27 25 26 27 24 19 18 17 16 21 26 39 49 36 32 42 41 45 54 61 68 70 75 75 66 63 66 69
13 14 13 11 10 10 10 11 12 13 12 13 13 13 12 11 11 10 10 10 10 10 9 10 10 9 10 11 11 11 10 10 10 10 11 11 11 12 12 11 13 10 6 7 11 15 17 22 27 28 29 28 25 22 21 19 20 24 26 24 23 23 23 23 24 20 15 15 18 22 18 27 45 36 28 38 40 44 50 55 64 69 72 76 71 64 65 69
11 13 14 14 12 10 10 10 11 12 12 13 13 14 14 14 13 11 10 10 10 10 10 10 10 12 14 12 11 12 11 11 12 12 13 13 14 15 14 12 12 10 6 8 12 16 20 24 28 29 27 26 25 22 20 19 20 22 23 22 21 21 21 20 22 19 16 16 15 21 23 27 42 39 29 34 38 42 48 51 59 68 71 76 75 67 64 67
8 10 13 14 14 11 10 10 10 11 12 12 13 13 14 14 14 13 12 11 10 11 14 14 11 13 17 13 11 11 11 12 14 14 14 15 17 17 16 14 10 11 12 13 15 18 23 25 27 27 24 22 22 21 19 18 20 21 21 21 20 19 19 18 21 17 14 18 19 26 35 35 43 46 33 31 37 39 45 50 55 65 71 75 76 71 64 64
6 7 10 13 14 12 11 11 10 10 11 12 12 13 15 15 16 16 13 13 12 12 14 15 14 15 16 14 13 13 13 14 15 15 17 18 19 19 18 15 11 14 19 19 21 21 21 24 25 24 22 20 21 21 20 20 20 21 20 19 19 18 17 18 20 17 11 17 26 30 28 24 31 41 32 27 34 36 40 47 50 58 68 72 75 72 65 63
7 6 7 11 13 13 13 14 11 10 10 12 12 14 15 15 18 19 15 14 13 12 12 12 14 16 15 13 14 15 15 16 16 16 19 19 20 23 22 19 18 21 22 21 24 21 17 21 21 21 22 21 22 21 20 20 19 19 19 17 18 17 17 18 16 15 11 13 25 26 18 16 22 30 26 22 28 33 37 44 48 52 61 69 73 73 69 66
8 7 7 9 12 14 16 15 11 10 10 11 12 14 16 16 17 17 15 16 15 13 13 13 13 14 14 13 14 15 16 17 19 17 19 20 21 26 26 24 24 25 24 21 21 20 17 18 18 19 22 21 20 20 19 19 17 17 17 16 17 16 15 17 15 14 11 12 23 25 15 15 20 22 23 23 25 30 36 42 47 50 53 62 71 74 72 70
9 9 8 8 11 14 17 16 12 11 11 11 12 14 16 16 16 17 16 18 18 16 15 14 14 13 13 14 14 15 16 19 22 20 19 21 22 25 26 26 26 27 27 23 20 19 17 16 17 18 19 17 17 18 16 16 15 15 16 15 16 15 13 15 16 13 10 13 21 21 18 19 22 22 22 24 27 29 33 39 46 49 49 54 65 73 75 73
9 9 9 8 10 14 17 16 13 12 11 11 13 15 17 17 17 18 17 19 22 20 17 15 14 13 14 14 14 15 17 19 23 22 20 22 23 23 25 29 29 27 27 26 24 22 18 18 18 16 16 16 16 16 14 14 14 15 16 16 15 14 13 13 14 13 13 21 24 21 23 26 29 34 30 25 26 28 31 36 42 46 47 49 57 68 75 76
7 8 8 8 10 14 17 16 14 13 12 12 15 17 17 17 18 18 17 21 24 21 19 17 15 14 14 14 14 16 18 19 21 22 22 23 24 24 26 27 27 27 25 26 26 23 20 19 17 16 18 18 16 15 15 14 16 15 15 16 15 14 14 13 14 15 15 24 28 23 27 27 27 40 43 28 23 27 30 32 36 42 47 48 50 59 70 77
6 7 8 8 9 13 15 15 14 13 12 14 17 18 18 19 19 18 21 24 23 21 21 19 18 17 14 13 15 16 18 21 20 20 22 25 25 25 26 24 22 25 26 24 23 20 19 18 15 17 19 19 17 16 15 16 16 15 14 15 14 14 15 14 15 17 15 20 25 24 31 30 23 32 42 31 22 25 28 29 33 38 43 46 47 52 62 72
8 7 8 8 9 12 14 13 14 14 13 16 19 19 19 19 18 20 23 23 20 22 22 19 19 19 16 14 15 18 21 22 19 19 23 25 25 24 25 24 22 23 24 22 20 18 17 17 15 17 18 18 17 15 15 17 16 15 15 14 14 16 17 16 16 16 17 20 25 29 34 31 23 28 34 28 23 25 26 28 32 34 37 43 45 49 57 65
9 8 8 8 8 11 12 12 14 14 15 18 19 19 20 20 19 22 25 23 21 24 23 19 19 19 18 16 16 20 23 21 20 20 22 25 26 26 25 25 25 25 25 22 19 17 17 17 17 18 18 17 15 15 16 17 15 16 15 13 14 15 17 20 18 16 22 24 22 32 38 27 21 26 28 24 24 27 27 26 29 31 33 38 41 45 54 62
9 9 9 8 9 9 11 13 14 14 17 20 19 20 21 20 20 23 24 24 24 25 23 20 21 19 18 17 17 20 21 20 22 22 22 26 26 26 27 27 27 28 27 24 22 20 19 19 19 20 19 17 15 16 17 16 16 16 14 13 15 16 19 23 20 18 24 26 21 26 34 25 16 21 26 28 30 33 34 29 25 27 30 33 38 42 50 61
11 9 9 8 8 9 11 13 14 16 19 20 20 22 21 21 24 25 23 25 26 25 23 21 22 20 19 20 20 21 21 20 22 22 22 26 26 25 26 25 26 27 26 24 22 20 20 19 18 19 18 18 17 17 16 14 15 15 13 15 18 21 25 27 26 22 20 21 21 21 28 28 20 17 21 28 30 30 36 37 26 24 28 31 36 42 49 58
13 11 9 9 9 10 13 14 15 19 20 21 22 22 22 23 27 26 22 25 27 25 24 23 22 20 20 23 22 20 22 21 21 22 23 25 26 26 25 24 25 24 23 22 20 19 20 18 16 16 15 15 16 16 14 13 13 13 14 15 14 16 20 23 26 26 19 16 21 23 25 30 24 18 18 24 29 25 28 37 33 25 28 30 33 41 48 55
15 13 12 12 12 13 15 15 18 21 20 22 22 23 27 27 26 27 25 25 26 26 27 25 22 20 20 24 23 21 22 21 21 24 25 25 26 26 26 25 24 22 20 19 19 18 18 17 17 17 14 14 15 16 14 13 12 13 14 14 12 12 15 17 17 19 16 15 21 24 25 27 22 19 20 22 27 27 23 29 33 29 28 30 31 37 44 50
16 15 15 16 15 15 16 18 20 21 21 23 23 25 30 29 27 29 29 28 26 25 26 23 21 21 20 21 22 21 21 21 21 24 25 25 25 25 24 23 23 23 21 19 19 17 15 15 18 18 15 13 15 15 13 13 12 13 13 11 12 12 13 15 13 13 14 15 22 26 25 23 20 18 21 20 20 23 23 24 28 28 28 31 32 34 39 44
16 17 18 17 17 16 18 20 21 21 21 22 23 27 30 29 29 31 31 30 26 22 23 21 20 20 21 21 20 20 21 21 21 23 23 23 22 22 23 23 22 23 24 22 20 18 16 16 16 16 14 14 14 14 13 13 12 12 12 11 11 11 12 14 11 11 12 12 20 28 24 18 15 14 17 18 15 18 22 25 26 27 27 29 31 32 35 38
17 19 19 19 18 18 20 21 20 21 22 22 26 30 30 30 31 32 31 28 24 24 24 21 20 20 20 20 18 18 20 20 21 22 22 24 25 25 26 24 22 22 24 22 21 19 17 16 16 16 15 14 15 15 15 14 12 11 11 11 11 11 11 12 10 12 12 9 15 24 21 14 13 15 16 15 16 17 21 24 26 27 27 27 29 31 33 35
18 19 20 20 19 19 21 21 21 22 21 25 30 32 33 34 32 32 31 25 21 24 23 20 20 21 19 20 20 19 19 19 20 23 25 27 28 27 26 24 22 23 25 24 24 21 17 17 17 17 16 15 16 17 16 14 12 12 12 11 11 12 11 11 12 14 14 12 13 15 15 12 12 16 16 16 17 19 20 24 27 27 27 28 30 32 33 34
18 19 21 22 19 19 21 21 21 21 21 29 34 33 35 36 32 30 29 25 21 21 23 22 21 22 21 21 22 20 19 19 18 21 24 27 28 26 24 24 24 27 28 27 27 25 21 20 19 18 18 16 15 16 15 14 13 13 12 11 12 13 12 11 13 14 13 13 13 12 12 12 12 14 14 17 21 22 22 23 26 28 28 30 32 33 35 36
19 19 21 22 21 20 20 21 21 20 23 32 34 29 33 37 33 30 29 27 23 22 25 25 22 25 24 22 23 22 20 19 18 19 22 26 31 29 27 30 30 30 29 27 30 31 26 21 19 18 19 17 15 16 14 13 13 13 12 12 13 12 13 14 13 13 13 13 12 12 12 12 12 12 13 15 20 27 28 24 24 28 29 31 33 34 36 38
18 23 23 21 22 21 21 21 20 21 28 36 36 31 32 36 34 31 30 28 26 26 28 27 25 27 27 25 27 26 22 20 18 19 22 26 31 31 31 34 34 32 31 29 31 31 26 23 20 18 18 17 16 15 13 12 13 14 13 13 13 13 13 14 14 12 12 13 13 13 12 12 12 12 12 13 15 25 31 26 23 27 29 31 35 36 38 40
17 29 29 21 23 23 21 22 23 29 34 34 35 34 32 34 35 33 32 30 30 30 31 31 30 31 30 29 29 28 27 26 20 22 25 25 28 32 31 31 34 34 31 29 31 30 28 26 21 19 20 18 16 15 14 14 14 13 13 12 12 13 13 13 13 11 11 12 13 14 13 12 12 11 11 12 11 17 26 26 24 26 29 32 35 37 39 41
16 32 30 21 26 25 23 28 29 32 36 32 31 32 32 35 36 35 35 33 32 32 31 31 32 33 32 32 33 31 32 33 29 28 30 25 27 34 32 29 32 33 31 33 37 36 33 32 28 25 22 18 17 19 19 18 16 15 14 13 12 13 12 12 12 12 12 11 11 13 14 12 12 12 11 11 11 14 20 23 24 24 26 31 33 36 39 41
18 31 26 20 29 30 30 36 33 32 37 37 34 34 34 36 36 36 37 35 35 35 34 33 33 33 32 33 35 33 34 38 36 34 34 28 27 31 30 28 30 32 34 37 39 36 32 33 33 29 24 22 22 22 20 17 17 15 14 15 14 13 12 12 13 13 13 13 11 12 14 12 11 12 11 10 12 15 18 20 22 24 25 27 31 35 39 40
15 21 19 20 27 31 36 41 38 35 36 35 34 36 37 38 38 39 38 36 37 37 36 36 35 35 34 33 35 35 36 38 36 35 36 32 29 29 29 30 31 33 38 40 43 41 35 34 35 29 25 25 23 22 19 16 17 17 17 20 19 17 15 12 13 15 15 14 13 12 14 13 12 12 12 11 12 15 19 21 22 23 24 26 30 34 35 33
14 15 17 20 21 27 39 43 43 42 37 34 36 36 37 38 37 38 38 38 39 38 38 38 36 37 37 35 35 36 37 40 40 38 36 36 36 34 33 34 33 35 38 38 41 41 36 37 39 30 25 23 21 21 19 19 23 23 23 26 25 21 19 15 14 16 14 13 13 12 12 13 12 13 14 13 13 16 19 20 21 22 23 24 25 26 26 25
17 16 17 17 14 21 33 38 41 44 38 36 37 35 36 37 35 36 36 35 36 37 38 39 38 38 38 37 38 37 36 40 43 42 39 40 40 36 35 36 35 36 36 35 35 34 35 42 41 33 29 24 23 25 25 25 27 26 25 28 27 25 23 18 16 16 14 14 16 15 12 12 14 16 19 16 13 17 22 21 21 22 21 19 19 20 21 20
20 18 15 14 14 18 25 28 33 38 37 36 37 35 33 33 31 31 31 30 31 32 32 34 37 38 38 39 42 40 38 39 42 42 41 42 42 38 36 37 36 37 36 35 34 33 39 43 39 37 37 31 30 35 35 32 30 28 28 28 27 28 26 22 19 18 18 18 18 17 14 14 17 19 20 18 14 16 22 23 22 22 21 18 17 19 20 18
21 19 16 17 19 18 21 24 27 31 33 34 35 33 32 32 30 29 27 26 25 24 24 26 27 31 36 37 38 41 40 38 40 41 41 42 41 39 38 38 37 37 37 37 35 35 43 44 36 38 41 35 35 39 37 34 33 33 32 30 29 28 27 26 22 19 22 21 17 19 18 17 21 20 16 17 16 14 18 23 25 24 21 17 16 18 20 18
22 21 18 19 21 18 19 20 19 20 22 24 28 29 29 29 26 25 24 24 23 22 25 29 25 24 29 29 30 38 36 33 38 40 38 39 39 38 40 40 39 36 36 38 37 35 41 42 35 36 38 34 34 37 37 36 35 34 33 32 30 28 28 30 26 23 26 21 17 20 19 19 25 22 15 17 17 15 17 22 24 24 21 17 16 19 20 19
24 23 20 18 19 17 17 17 16 16 16 18 22 26 28 28 26 26 25 26 25 22 25 30 25 22 25 23 23 28 25 25 36 36 28 27 29 28 30 34 38 38 34 34 38 37 37 39 40 39 39 38 36 35 36 35 33 34 34 32 30 30 30 31 30 27 23 21 22 21 17 20 24 18 16 19 17 15 18 21 22 23 20 16 16 18 20 19
26 25 22 19 18 16 16 17 17 16 17 18 21 24 26 27 27 26 24 23 23 20 19 21 19 17 19 17 16 18 16 16 22 22 15 15 19 21 22 26 32 32 25 24 34 38 34 36 43 44 40 36 34 32 33 34 34 33 32 31 30 30 31 34 37 30 21 24 26 17 15 25 24 15 16 20 17 16 20 21 22 21 19 16 15 17 18 18
25 24 22 20 18 17 17 16 15 19 20 18 19 20 20 21 20 19 18 17 17 17 17 17 16 16 15 14 14 14 14 13 14 15 13 13 17 20 22 24 22 19 18 20 26 30 30 33 39 39 34 29 28 28 29 31 31 29 29 28 26 27 33 40 40 29 20 23 22 17 23 31 23 15 19 21 19 19 22 23 24 23 20 16 15 16 17 17
21 19 18 18 18 18 18 16 16 23 25 19 17 19 18 18 18 18 20 21 17 18 19 17 17 17 16 17 16 15 16 16 15 16 15 14 15 14 15 18 16 13 14 16 18 24 31 38 39 34 30 28 25 26 32 32 25 24 30 31 27 28 36 42 39 26 18 21 22 25 31 28 18 15 19 22 21 21 22 24 24 24 23 17 14 15 16 16
Wind_Speed
5 5 4 4 3 3 2 2 2 2 3 3 4 5 5 5 4 4 3 3 3 3 4 4 4 5 4 4 4 3 3 2 2 2 3 3 4 3 2 2 7 14 17 17 15 13 11 8 7 4 1 2 5 7 8 8 9 10 10 8 7 9 9 10 10 9 11 12 13 11 4 2 4 5 5 6 5 4 3 2 1 1 3 3 2 3 3 4
5 5 5 4 4 3 3 2 1 1 1 2 3 4 5 5 4 3 3 3 3 4 4 5 5 5 5 5 5 5 4 3 3 2 2 2 3 3 3 1 4 10 16 17 15 13 11 10 8 5 1 3 5 8 8 8 9 10 9 7 8 9 10 11 10 11 12 14 16 11 4 2 4 5 5 6 5 4 2 1 2 3 4 4 3 3 3 5
4 5 5 4 4 4 3 2 2 1 0 1 2 4 5 5 4 3 3 3 3 4 5 5 5 5 5 5 6 6 5 4 3 2 2 1 1 2 2 1 4 8 14 18 17 15 13 12 9 6 1 3 6 7 8 8 9 10 9 7 8 11 11 11 11 12 13 15 18 11 4 1 3 4 5 6 5 4 3 1 1 4 4 4 4 4 4 6
4 4 4 4 4 4 3 3 2 1 0 1 2 3 4 4 4 4 3 3 3 4 5 5 6 5 5 6 6 6 6 5 2 2 2 1 1 1 1 2 5 8 13 19 19 16 15 13 10 6 2 2 6 7 7 7 7 9 8 7 9 11 10 12 13 14 14 16 18 12 4 1 2 4 4 6 6 5 4 3 1 3 3 4 5 4 5 6
5 5 4 4 4 4 3 3 2 1 1 1 2 3 4 4 4 4 3 3 4 4 5 6 6 6 6 6 7 7 5 4 3 3 3 1 1 1 1 3 6 8 13 18 18 16 16 14 10 6 1 3 6 7 7 7 7 7 8 9 11 11 10 12 15 16 16 16 17 14 6 2 1 2 4 6 7 6 5 2 1 2 2 4 5 5 7 7
5 5 5 4 3 3 3 3 2 2 1 1 2 3 4 4 4 4 4 4 4 5 5 5 6 6 6 6 7 7 6 3 4 4 3 3 2 2 1 3 6 9 11 16 18 16 16 15 10 6 3 4 5 5 7 9 8 5 6 10 11 12 11 13 15 16 16 16 17 15 9 3 1 2 5 7 8 7 4 1 1 1 1 3 5 6 7 8
6 6 5 5 4 3 3 3 3 2 2 1 2 3 3 4 4 4 4 4 4 5 5 5 6 6 6 6 7 7 6 4 3 4 4 4 3 3 2 3 6 9 11 13 16 15 16 16 11 7 5 4 5 5 7 8 7 4 5 10 11 12 13 14 15 16 15 16 16 16 11 5 1 2 5 7 8 6 3 2 1 0 1 2 5 7 9 10
7 6 6 5 5 3 3 2 2 2 2 2 2 3 3 4 4 5 4 5 5 5 5 5 6 6 6 7 6 6 6 5 3 4 5 4 4 4 2 4 5 8 10 11 14 16 16 16 12 8 4 5 6 5 7 6 6 5 6 10 11 13 14 14 14 15 16 16 16 16 13 8 3 1 5 7 7 6 5 4 2 1 1 2 5 9 10 11
9 8 7 6 6 5 3 2 2 2 3 2 3 3 3 4 4 4 5 5 5 5 5 5 5 5 5 6 6 6 6 5 4 5 5 5 4 3 2 4 5 7 10 11 15 17 16 15 12 9 6 6 6 5 7 4 4 6 8 10 12 14 14 13 13 14 16 16 16 15 12 10 6 2 3 6 7 7 6 5 3 2 2 2 6 9 10 11
10 10 9 7 6 6 5 3 2 3 3 3 3 3 4 4 4 4 4 5 6 5 5 5 5 5 5 5 6 6 6 4 5 5 5 4 3 3 3 4 5 7 10 12 15 18 17 15 13 13 9 7 6 6 6 4 5 8 9 10 11 13 12 12 13 14 16 16 17 15 11 10 9 4 2 6 7 7 7 5 4 3 2 3 6 9 10 11
11 11 10 9 8 7 6 5 3 3 4 4 3 4 4 4 4 4 4 4 5 6 6 6 5 5 5 4 5 6 6 5 6 6 5 4 4 4 3 4 6 7 10 12 14 17 18 17 17 12 7 8 6 6 7 7 8 10 11 11 11 11 10 11 12 14 16 15 19 17 11 11 11 6 1 6 7 8 7 6 5 4 3 4 7 9 10 10
12 11 11 11 10 8 7 6 5 4 4 4 4 4 4 4 4 4 4 4 5 6 6 7 6 6 6 5 5 6 6 6 6 6 6 5 5 5 4 4 6 8 11 13 15 18 20 19 17 12 9 9 6 6 8 10 10 11 12 10 10 10 9 12 13 14 16 16 19 18 10 9 11 8 3 3 6 7 7 7 7 4 4 5 7 9 9 9
12 12 12 12 11 10 8 7 7 5 4 5 5 5 5 5 5 5 5 5 5 5 6 6 7 7 6 6 6 5 6 7 7 6 6 6 6 6 6 5 6 8 11 15 18 21 22 20 18 16 15 10 5 7 9 10 10 10 11 9 9 8 6 10 13 14 17 17 20 18 9 7 11 9 6 1 4 7 7 8 8 6 5 6 8 10 10 9
13 13 12 12 12 11 10 9 8 7 5 5 6 5 5 5 5 5 5 6 6 6 6 6 6 7 7 7 7 6 7 8 7 7 7 7 7 7 7 6 6 8 11 16 18 21 22 20 20 18 16 12 9 9 8 10 10 9 10 8 7 5 5 9 12 15 18 18 20 18 8 5 11 10 5 3 1 5 8 9 9 9 7 6 9 12 12 11
14 14 13 12 12 12 11 10 9 8 7 6 6 6 6 6 6 6 6 6 6 6 6 6 6 7 7 7 8 7 8 8 7 8 8 8 8 7 7 8 7 8 11 15 17 19 20 20 20 15 14 14 13 10 8 9 10 9 8 6 4 3 5 9 12 15 18 20 20 17 8 6 11 10 5 3 2 3 7 9 10 10 9 8 9 13 13 14
15 14 13 13 13 12 12 10 10 10 8 7 6 6 6 6 7 7 6 7 6 6 6 6 6 7 7 7 8 8 9 9 8 7 8 8 8 7 7 8 9 9 11 15 17 19 20 19 18 16 14 13 11 9 9 10 9 6 6 5 4 4 5 8 12 16 18 20 21 17 11 7 9 10 7 5 3 2 5 9 11 11 11 10 10 13 15 16
16 15 14 13 13 13 12 11 10 10 9 8 7 6 6 6 7 7 7 7 7 7 7 7 7 6 7 7 8 10 11 10 8 8 9 8 8 7 7 8 10 10 12 16 18 18 19 18 17 16 13 11 9 9 10 9 6 5 3 5 5 6 7 7 11 17 19 18 18 17 17 12 9 13 10 6 6 4 5 7 11 12 13 13 12 14 16 18
15 15 14 12 12 12 12 11 11 10 9 8 7 6 6 6 7 7 7 7 8 8 7 8 7 5 6 8 9 10 12 10 8 9 9 7 7 7 7 8 10 11 12 15 17 18 17 16 15 13 11 12 11 11 11 8 5 4 6 8 8 8 8 7 10 16 18 18 16 16 18 14 12 15 13 9 8 6 6 7 10 13 15 15 14 15 17 19
14 15 14 12 11 12 11 11 11 10 9 7 6 6 6 6 7 7 7 8 9 8 7 7 8 7 7 9 9 10 11 10 9 9 7 6 6 6 7 9 10 10 10 12 14 16 15 13 14 13 12 13 12 12 12 9 9 9 10 12 12 12 10 8 12 16 17 17 17 16 15 14 12 15 16 12 10 9 8 8 10 14 16 17 16 16 17 19
14 14 13 12 11 11 11 11 11 10 8 7 7 6 6 6 6 7 8 8 9 10 9 9 9 10 10 9 10 11 10 9 10 9 6 5 5 6 7 9 10 10 10 9 10 15 16 14 14 15 13 12 10 11 11 12 12 12 13 13 13 13 10 9 13 15 16 17 16 15 16 14 10 13 17 16 14 12 10 9 9 13 17 18 18 16 16 19
14 14 13 12 11 11 10 10 10 9 7 8 8 7 7 7 6 7 7 7 9 10 11 11 10 10 10 9 11 11 11 11 11 9 7 6 5 5 7 8 9 9 11 12 10 14 17 15 15 14 12 12 13 13 13 14 14 13 14 14 13 11 10 11 14 16 18 19 16 16 17 14 10 11 16 17 15 14 11 10 8 10 14 18 18 17 16 18
13 13 12 11 11 10 9 8 9 8 7 8 8 7 8 8 7 7 6 6 8 9 10 10 10 10 10 11 11 11 11 11 11 9 6 5 5 5 7 7 9 8 10 14 12 11 13 14 15 13 13 17 18 18 17 15 15 14 14 13 11 10 10 12 15 19 20 18 15 16 18 15 11 10 12 14 14 13 13 11 10 10 12 16 19 19 18 19
12 12 11 10 9 8 7 7 7 6 6 7 8 8 8 8 7 5 5 5 6 7 9 8 8 9 12 13 12 10 11 11 10 10 7 5 5 6 8 8 9 8 8 11 11 11 10 9 11 13 14 16 15 15 15 13 14 14 12 12 10 9 11 9 12 20 20 16 14 17 21 16 8 8 10 11 12 13 13 13 13 13 12 14 18 21 21 21
12 11 10 8 8 7 7 6 6 5 6 8 8 9 8 7 5 3 4 4 0 3 6 6 6 9 12 13 12 11 12 12 11 10 7 5 5 5 7 9 9 8 8 9 11 12 10 7 9 9 8 8 8 10 10 11 12 11 11 10 9 9 10 9 11 16 16 15 16 19 18 11 4 7 11 10 11 12 12 13 14 15 13 12 16 21 24 22
10 10 9 8 7 7 7 6 5 5 6 8 9 9 7 5 4 3 5 6 3 1 2 2 4 8 10 10 10 11 12 13 11 10 8 6 6 5 6 10 9 7 8 8 9 11 10 10 9 5 3 6 7 8 9 9 10 9 8 6 8 8 10 11 11 14 12 9 14 16 10 7 7 8 10 11 12 11 11 12 13 14 14 13 14 20 25 24
9 8 8 7 6 7 7 6 5 6 7 9 9 8 7 6 5 5 8 9 4 3 2 2 4 5 8 10 10 9 10 13 13 10 9 7 7 8 7 7 6 5 7 7 8 10 9 9 8 5 5 6 6 8 8 9 10 8 5 5 8 8 10 11 11 13 10 7 14 15 6 7 11 8 11 14 13 10 10 11 12 13 14 14 14 16 23 27
8 7 6 5 6 8 8 7 6 7 8 9 8 7 7 6 7 9 9 7 4 4 4 3 3 4 8 10 10 10 8 11 12 11 11 9 8 7 6 6 5 5 6 5 6 7 6 7 6 4 5 6 7 8 7 8 9 6 5 8 9 8 10 11 10 10 10 9 13 12 7 9 10 6 10 13 9 7 8 8 9 11 11 12 13 14 19 27
8 5 3 4 6 8 8 7 7 8 8 9 8 7 7 6 8 10 6 3 4 4 3 3 4 7 10 11 12 12 9 9 9 12 13 10 9 7 5 6 5 4 5 6 5 3 5 6 5 4 6 7 8 6 5 8 9 8 9 9 9 10 11 10 10 9 9 9 9 7 7 10 8 5 9 11 7 6 8 6 5 6 7 8 11 12 16 25
10 6 2 2 6 8 8 7 8 9 8 8 7 8 7 7 10 8 4 1 5 3 1 4 6 9 11 12 11 9 9 10 9 11 13 11 10 9 7 7 6 6 6 7 8 5 6 8 7 8 8 8 8 6 7 8 8 9 10 10 10 11 11 9 9 8 9 10 7 4 4 7 8 6 6 9 7 5 6 6 3 4 5 6 8 10 14 23
10 8 4 4 6 8 9 8 9 9 8 8 8 7 8 9 8 5 4 3 5 2 2 4 6 10 13 12 9 7 8 10 11 10 12 12 10 7 6 6 5 7 8 9 11 9 9 10 11 12 11 9 8 8 9 9 10 11 10 9 10 9 9 10 9 8 9 8 5 5 5 6 7 6 6 7 7 4 3 4 3 2 3 5 8 10 14 21
10 8 6 6 7 9 9 9 9 9 9 9 9 8 9 9 4 3 3 5 5 3 3 3 7 12 14 11 6 6 7 7 9 9 9 10 10 8 6 4 4 7 9 10 11 8 9 12 13 13 11 10 10 11 10 10 11 12 9 9 10 9 9 9 8 7 6 5 3 5 6 6 7 6 8 8 10 8 4 3 3 2 2 4 7 10 13 19
9 8 7 6 7 8 8 10 9 9 10 10 10 10 9 6 2 1 4 5 2 2 3 5 10 14 15 12 7 7 6 5 7 9 8 8 8 8 7 5 4 7 7 6 5 7 9 12 12 13 13 12 11 11 11 12 14 13 10 10 11 9 7 7 6 5 5 5 3 5 7 7 8 9 9 9 10 10 7 5 5 4 4 5 6 8 12 16
8 8 7 5 6 7 8 9 9 10 11 11 11 11 6 3 3 5 5 3 1 3 5 8 12 14 15 11 8 8 7 5 6 8 8 8 7 7 6 6 5 6 6 5 7 9 8 8 9 11 14 14 14 14 12 11 13 14 13 12 11 7 5 6 5 4 5 4 3 5 7 7 7 8 8 10 9 7 6 5 6 6 6 6 6 8 10 13
7 7 7 5 5 6 8 8 9 10 11 12 12 9 3 2 5 6 4 3 4 5 5 9 13 14 13 8 8 10 7 6 7 7 7 7 6 5 4 4 5 6 7 9 8 7 7 5 5 6 8 10 14 17 13 8 8 11 11 10 12 10 7 6 6 5 6 5 3 5 6 6 8 8 8 11 10 6 6 5 4 5 6 7 7 7 10 12
7 7 7 5 3 5 6 6 8 9 11 13 10 4 3 4 6 5 3 4 7 7 6 11 13 11 10 8 8 10 8 7 8 7 6 6 6 4 3 4 5 5 6 7 5 4 8 6 2 3 5 4 6 10 11 11 10 9 10 11 12 11 9 10 10 9 12 11 6 5 5 6 9 8 8 12 10 6 6 5 3 3 5 6 5 5 7 10
7 7 7 5 3 4 5 5 7 8 11 13 7 2 4 6 6 5 5 6 9 10 10 11 10 7 8 8 6 7 7 7 9 9 7 7 6 5 5 5 6 3 4 6 6 5 7 5 2 4 5 5 5 6 8 11 9 6 8 11 11 9 9 12 11 8 11 10 5 6 8 7 7 4 8 15 13 7 5 5 5 4 4 6 6 5 4 6
8 7 7 5 3 4 4 5 6 7 11 10 5 5 7 6 6 7 8 8 11 13 11 6 7 6 6 7 7 6 5 7 9 9 8 7 6 6 6 5 4 2 1 2 3 5 8 8 5 4 5 7 8 7 6 7 9 8 8 8 8 9 9 11 10 7 8 7 5 6 8 7 6 2 6 13 13 9 6 5 6 6 4 5 7 6 5 5
8 8 7 5 3 3 4 5 5 7 9 8 6 9 8 6 6 7 8 9 10 11 5 2 6 6 4 5 6 5 5 6 8 8 8 7 5 6 6 5 4 2 1 0 2 5 9 9 4 1 3 6 6 6 5 4 8 10 9 8 9 9 7 7 7 7 6 6 5 5 6 6 5 4 7 10 10 9 6 4 5 6 5 5 6 6 7 6
8 8 7 4 3 3 4 5 6 7 8 7 7 8 8 8 7 7 8 8 8 7 2 2 6 6 5 5 5 5 5 4 6 7 7 7 6 7 7 5 3 2 0 1 2 4 6 7 4 1 1 3 5 8 9 6 5 5 6 8 9 9 8 7 7 7 6 5 5 5 6 4 3 4 9 13 13 8 6 4 3 5 5 6 7 7 7 7
7 6 4 3 4 3 5 6 7 7 7 8 9 9 10 9 8 8 8 7 6 4 3 4 5 5 5 5 3 4 4 3 5 5 5 6 7 8 9 7 4 3 3 2 2 4 4 6 8 4 5 7 7 7 7 5 4 4 5 6 8 8 9 8 9 9 9 7 5 4 6 4 3 6 11 15 15 9 7 6 5 6 7 8 9 8 8 8
5 4 2 2 4 3 5 7 7 8 7 8 10 11 11 10 9 8 7 7 6 4 5 5 5 5 6 4 3 4 3 2 4 3 3 6 6 6 9 9 6 4 3 2 3 5 5 7 10 10 10 10 8 7 9 9 8 8 7 6 7 7 8 9 9 9 9 10 8 6 7 6 5 9 14 16 13 9 8 8 6 7 7 8 9 9 9 9
4 0 2 1 4 4 5 5 6 7 7 8 10 10 10 9 9 7 6 6 5 5 6 5 4 5 6 5 4 5 4 2 3 3 3 7 8 7 9 10 8 5 3 3 6 8 8 8 11 13 12 11 12 12 12 11 11 10 9 7 6 7 9 10 8 7 9 10 9 10 9 7 8 12 15 15 11 8 8 9 7 6 7 7 8 9 9 10
3 2 2 1 4 5 5 4 5 6 9 10 10 9 9 8 7 6 6 6 4 4 5 5 5 5 6 6 5 5 4 4 5 5 5 7 9 9 9 9 9 7 3 3 4 7 9 8 10 14 13 11 10 8 6 6 5 5 5 4 6 7 9 11 10 8 8 9 9 10 8 6 9 14 17 15 10 7 6 8 7 6 6 6 6 8 9 9
4 2 1 1 3 5 6 6 6 6 9 9 8 8 8 8 7 6 6 6 6 5 5 6 6 6 6 7 6 6 5 4 5 6 6 8 9 10 10 10 10 8 7 6 6 8 10 8 9 14 13 9 7 4 4 5 1 2 3 3 5 5 6 10 11 10 11 12 12 11 8 6 8 15 19 14 8 6 6 7 7 6 6 5 5 7 7 6
4 3 1 1 2 4 7 8 7 7 8 8 8 8 8 8 8 8 8 7 7 7 7 7 8 8 8 7 7 8 8 6 5 6 7 8 10 12 12 12 12 11 12 11 10 11 10 8 10 12 11 8 7 5 5 4 6 7 6 5 6 6 6 9 10 11 13 12 11 12 11 8 8 13 15 11 6 4 5 7 7 6 6 6 4 5 5 4
5 2 1 0 2 4 6 7 8 8 7 7 6 7 7 8 9 9 9 9 9 9 9 9 9 9 10 9 8 10 12 10 8 8 8 8 11 13 13 13 13 13 13 13 12 12 11 11 13 14 15 14 11 9 9 11 12 11 10 9 8 7 7 8 9 11 11 10 11 12 13 12 9 10 13 12 8 5 5 7 8 5 5 6 4 4 3 3
4 2 2 2 3 5 5 6 7 7 7 6 6 6 7 8 8 8 9 9 10 10 10 10 10 10 10 11 10 10 13 14 12 12 12 12 14 15 14 14 15 15 14 15 15 12 11 13 15 15 18 19 15 12 11 13 14 14 14 13 11 9 9 9 11 12 9 10 11 11 12 12 9 12 18 18 12 7 6 7 6 4 5 6 4 3 2 2
5 2 2 2 3 3 3 4 4 5 5 6 6 6 7 8 8 8 8 8 8 8 7 9 11 11 11 12 11 10 13 13 12 13 16 16 17 17 15 16 18 19 17 16 18 17 15 16 17 16 18 18 17 16 14 14 15 16 16 16 15 13 11 11 13 13 11 12 13 11 13 12 9 14 19 17 13 10 9 9 7 3 3 5 4 3 2 2
5 3 3 2 1 1 1 2 2 2 2 3 4 5 5 6 7 7 7 7 8 8 7 8 10 11 11 12 11 12 14 11 10 14 17 16 17 17 15 13 14 17 18 17 18 20 19 16 15 16 18 19 18 17 16 16 17 17 18 18 17 15 14 14 13 13 15 16 15 15 17 16 15 16 17 14 11 12 11 10 7 3 1 3 3 3 3 3
6 4 3 3 1 1 1 0 1 1 2 2 3 4 4 5 6 6 7 7 7 8 7 8 10 10 10 11 11 12 14 13 12 15 17 16 15 15 14 13 12 14 17 16 14 16 17 14 12 14 17 20 19 18 19 18 17 19 19 19 18 17 16 15 13 15 18 18 17 19 18 17 18 18 16 13 11 11 12 10 7 4 2 1 2 3 4 5
7 6 5 4 3 2 2 2 1 1 2 3 3 5 6 6 7 7 7 7 7 7 7 7 8 9 9 9 10 11 13 13 13 14 16 15 14 14 14 14 15 16 16 15 14 15 15 13 11 12 17 19 17 15 16 16 18 22 22 22 22 20 17 15 15 17 19 18 20 20 16 15 18 18 16 14 11 10 13 12 9 6 4 2 3 3 4 5
9 8 6 5 4 4 4 4 3 2 3 4 4 5 6 7 8 8 7 8 8 7 7 8 7 8 8 9 10 11 12 12 13 13 14 14 14 15 15 14 16 17 17 16 16 15 13 12 11 11 14 16 13 11 11 13 16 19 18 17 18 18 17 17 19 21 21 19 20 19 16 19 21 19 16 13 11 11 14 15 12 9 6 5 5 5 5 6
Wind_Direction
347 348 349 350 347 340 334 323 300 282 269 256 250 244 245 244 242 236 224 210 198 193 189 190 185 182 179 172 165 156 145 136 159 193 203 225 244 259 278 232 189 187 184 178 171 166 168 174 174 173 158 4 6 360 359 12 18 27 24 11 21 20 5 355 351 346 348 348 345 345 342 277 263 254 223 208 200 203 230 265 279 299 298 285 256 223 202 179
351 351 351 352 352 350 354 354 357 331 272 250 243 237 238 238 237 230 211 195 189 183 179 182 177 172 169 163 160 153 145 142 165 182 190 228 252 263 281 276 182 191 190 180 173 172 179 185 179 176 162 355 350 351 353 12 23 25 17 11 21 6 352 350 346 349 348 348 351 348 340 251 242 253 224 207 206 206 227 284 267 279 285 264 234 201 181 162
356 352 347 349 350 351 356 358 3 10 15 227 230 230 232 233 233 224 205 189 183 181 176 177 173 168 163 159 157 153 153 149 153 168 167 202 257 263 272 236 180 188 191 183 179 180 184 185 177 182 171 354 337 346 350 7 20 19 23 20 4 354 354 355 352 356 354 353 356 354 349 280 235 243 223 201 186 163 178 227 269 284 285 246 223 192 167 155
5 357 349 347 345 346 348 351 352 349 31 207 219 224 227 228 228 218 204 190 186 186 177 174 173 169 162 158 156 155 163 162 161 179 167 117 65 273 252 214 196 190 191 188 187 184 182 180 178 190 174 343 323 347 349 358 17 13 21 10 349 354 356 356 360 0 356 357 359 360 5 335 234 227 216 193 169 143 175 214 268 296 290 228 218 191 161 154
5 2 356 349 342 343 340 340 339 331 321 228 217 224 225 224 225 218 204 194 194 195 182 176 174 171 167 160 158 157 152 162 236 234 197 202 45 16 256 207 202 202 198 192 192 187 180 180 182 194 196 313 318 352 336 332 9 7 1 355 350 356 354 354 0 1 357 359 2 5 7 350 260 209 197 180 173 166 180 196 40 327 287 214 216 189 159 154
358 357 357 352 343 338 335 333 326 317 298 251 226 226 225 224 223 217 208 199 198 200 192 179 177 177 173 164 162 167 154 158 244 240 229 259 314 335 291 211 206 209 208 198 195 189 182 185 187 208 257 296 308 335 315 324 358 3 343 345 349 352 354 357 1 2 0 1 5 7 7 9 68 189 185 177 181 182 183 172 70 2 281 208 211 188 159 152
352 348 346 346 344 337 331 327 318 308 291 258 235 232 229 226 221 215 211 204 202 203 201 185 183 183 175 168 162 175 184 193 230 236 249 264 286 304 291 221 210 211 215 205 198 190 186 188 192 218 249 286 291 310 319 333 350 348 334 337 343 349 356 3 6 7 5 5 7 9 12 15 22 196 187 185 189 193 211 219 157 328 276 225 208 186 161 153
343 342 339 335 335 332 326 317 310 305 291 273 247 240 236 231 220 212 208 207 205 201 206 195 187 186 174 168 160 170 193 208 227 242 258 266 279 293 276 219 210 211 213 206 200 192 191 194 198 215 242 282 275 300 323 331 335 331 331 333 341 349 359 9 11 11 9 10 12 13 16 17 24 181 196 195 197 209 230 220 197 234 252 245 205 184 163 158
331 332 333 328 325 324 321 308 296 295 289 280 259 250 245 241 228 212 204 205 204 199 205 202 192 188 175 167 161 177 194 216 237 243 255 267 280 286 257 217 208 212 205 199 198 192 193 197 204 213 222 262 268 293 315 320 311 307 322 329 339 348 1 13 14 12 11 14 15 17 18 20 33 58 212 205 201 215 226 212 204 221 217 219 203 184 166 165
320 321 322 321 320 316 314 306 285 278 277 272 262 256 252 249 243 224 208 203 203 200 199 198 196 189 185 174 167 191 211 229 235 238 252 257 265 262 240 218 212 213 201 198 198 192 193 197 207 217 222 250 265 290 300 290 279 287 309 324 335 347 3 15 14 10 10 13 14 15 19 21 30 42 210 203 201 214 220 208 201 200 189 196 202 189 171 169
312 312 312 313 312 309 308 303 289 275 268 264 257 253 255 253 252 243 224 209 202 200 195 193 198 198 205 198 183 205 223 230 226 233 246 243 244 246 234 222 219 215 202 196 195 196 199 201 206 213 232 253 258 288 290 277 275 283 303 321 337 353 9 13 11 6 6 10 10 13 18 19 23 33 169 195 198 216 224 216 207 189 172 187 203 196 179 172
306 305 304 304 305 304 300 297 291 280 268 262 255 247 251 251 251 251 241 227 211 206 201 197 201 208 220 220 211 220 224 219 219 227 236 233 236 242 237 226 224 219 205 193 190 198 204 205 207 209 222 235 257 283 274 278 279 282 298 316 331 347 4 4 5 3 4 6 7 12 15 9 13 22 32 199 200 213 227 227 222 202 179 187 201 196 183 177
301 300 298 297 297 297 294 290 286 280 272 263 256 246 245 246 246 248 246 241 231 222 216 209 208 213 221 226 227 223 212 212 214 221 229 229 230 239 236 225 231 228 210 199 194 199 203 205 207 212 219 224 263 260 252 286 291 286 304 318 322 329 340 347 358 360 1 2 2 7 10 355 351 0 18 357 212 212 221 227 230 221 201 192 198 194 184 178
297 295 293 291 290 291 289 286 281 277 270 262 257 249 244 244 243 243 244 244 242 238 231 224 218 217 219 223 226 216 211 216 215 217 225 229 230 235 235 228 231 228 215 210 208 205 202 206 210 216 226 226 240 254 268 296 293 292 306 314 316 317 307 328 354 2 356 354 356 0 4 342 329 334 0 7 262 220 221 225 231 227 219 204 198 195 185 178
291 291 288 287 284 283 283 282 279 276 271 263 258 252 246 244 243 242 242 242 245 244 240 233 224 221 224 225 223 217 219 221 216 219 225 230 232 234 236 231 229 225 215 213 214 212 205 207 212 215 231 233 236 259 285 287 283 292 298 290 292 309 315 326 346 359 354 346 350 353 347 328 317 322 334 323 318 235 227 225 231 230 226 217 202 196 187 181
288 287 285 283 279 279 278 275 275 275 272 267 260 257 250 244 243 242 243 243 245 246 242 239 230 224 226 229 226 220 221 222 219 223 224 229 238 239 238 231 228 224 214 211 212 213 210 210 214 214 227 238 244 263 278 277 264 264 286 284 287 313 325 327 332 347 353 343 343 344 344 343 303 306 319 293 283 252 233 226 228 229 227 222 208 199 191 187
284 283 281 280 277 276 274 271 269 269 270 268 264 261 255 248 245 242 243 244 243 243 239 237 233 229 232 231 224 221 223 225 222 222 222 231 244 242 240 234 227 220 213 211 211 212 212 213 219 224 232 239 244 255 267 271 248 220 272 290 294 313 320 328 329 340 348 342 340 335 339 350 306 300 315 293 277 256 236 227 224 225 226 222 212 203 196 193
283 280 278 277 275 274 273 268 264 262 264 264 263 261 257 252 247 243 243 242 241 242 243 241 231 229 243 234 222 221 222 220 219 218 219 234 251 244 230 227 225 220 214 211 213 215 216 219 226 231 237 238 240 245 251 269 298 292 296 298 302 311 313 327 332 335 340 338 342 335 327 334 316 305 312 300 285 265 238 227 219 220 223 221 217 209 201 199
283 276 274 274 274 274 271 265 259 257 254 254 254 253 252 250 249 246 243 241 240 239 243 242 223 212 231 233 225 222 217 212 213 217 222 239 253 244 223 222 222 212 208 212 219 220 216 222 229 229 235 239 239 240 248 275 301 293 291 296 299 305 308 321 327 330 337 335 336 333 316 313 307 299 305 303 290 274 250 235 223 218 219 218 219 216 207 203
284 276 272 271 271 270 266 261 257 253 246 243 241 238 241 241 244 249 245 243 243 239 239 239 223 212 218 226 224 216 208 207 211 218 224 234 247 242 223 218 213 202 200 205 220 227 220 221 230 232 239 243 238 240 254 273 281 282 286 289 292 298 304 316 322 325 337 337 328 325 318 313 302 288 298 303 294 285 269 251 234 220 219 218 218 219 213 205
287 280 274 269 266 266 264 259 256 251 240 231 229 228 230 225 227 243 246 247 249 245 243 243 235 223 218 222 218 205 199 202 212 221 225 230 237 233 227 215 200 202 209 202 209 232 228 228 238 240 243 241 238 249 264 270 274 277 280 283 288 295 303 313 320 325 336 337 326 326 327 323 315 290 294 305 303 299 285 261 241 223 220 220 219 219 215 206
292 285 278 269 265 266 265 259 254 247 230 219 220 219 220 221 224 234 241 252 257 255 252 246 236 228 225 227 219 204 200 198 210 225 225 234 229 207 221 215 191 204 226 218 219 240 240 239 244 243 248 250 251 259 266 268 270 269 269 277 282 297 310 311 318 323 330 333 326 329 327 322 322 304 300 312 314 309 294 269 248 231 219 218 220 219 216 207
297 290 280 269 263 260 259 256 249 238 219 209 212 212 214 220 222 231 236 236 257 264 258 249 231 221 221 226 221 208 204 196 207 227 225 235 227 203 215 210 197 216 236 228 227 238 242 242 244 245 250 256 258 260 261 261 261 258 260 272 281 304 318 315 316 319 327 335 334 339 333 326 330 317 315 322 317 310 298 278 257 245 232 220 217 218 219 213
300 292 284 269 253 247 245 246 240 223 206 199 203 207 210 213 208 227 215 181 190 273 258 256 227 210 214 222 219 208 205 198 203 221 217 219 221 210 214 205 207 230 234 229 235 240 246 255 250 246 244 242 241 245 248 246 249 249 249 268 292 309 315 314 312 316 327 333 333 342 337 324 317 305 317 331 321 312 303 286 265 255 248 230 216 216 218 216
300 291 283 266 244 232 226 229 226 205 195 193 196 202 202 189 179 193 171 143 100 29 260 252 193 197 207 211 212 205 203 203 208 217 209 205 206 197 211 212 212 234 237 234 240 242 249 251 238 224 230 231 223 232 236 231 241 247 234 255 294 304 309 311 311 315 321 314 318 334 334 321 335 309 303 328 328 316 306 293 277 262 254 243 228 218 216 214
305 290 278 259 232 219 213 214 210 194 189 191 191 194 184 165 160 150 142 141 126 78 75 137 158 184 193 191 197 191 195 207 211 214 210 204 197 188 205 222 214 221 230 238 250 247 242 231 218 213 241 240 226 230 229 224 241 245 222 257 295 307 310 309 310 312 315 313 316 328 328 313 330 298 281 315 330 321 312 304 289 270 256 247 240 228 217 210
322 297 277 250 219 208 207 203 196 186 185 187 187 182 162 152 152 140 143 157 136 82 80 122 155 165 167 171 169 161 188 213 208 206 206 201 194 181 188 214 221 224 223 234 246 230 208 208 210 219 238 232 225 228 221 222 237 246 252 276 296 310 307 306 306 298 305 317 312 318 315 300 310 292 292 319 334 330 328 315 294 280 267 252 241 234 222 212
350 327 287 232 202 199 200 193 183 178 179 182 180 165 146 147 150 147 171 185 99 82 79 105 128 138 146 155 156 160 184 195 195 207 203 193 195 188 193 217 226 241 237 236 239 201 184 208 222 235 241 232 226 227 225 227 241 264 276 281 296 306 302 305 302 288 299 312 300 300 308 304 315 327 326 334 339 339 340 326 287 270 265 252 240 235 223 214
14 15 8 186 183 188 186 176 172 172 173 170 159 148 142 145 140 144 206 201 83 67 92 117 126 132 139 147 149 161 177 171 179 205 199 193 201 198 208 226 227 241 253 252 256 256 237 233 237 244 243 238 240 243 241 235 241 264 278 286 297 304 305 304 291 283 291 295 297 316 312 309 320 334 341 338 335 340 339 324 291 251 245 232 226 230 222 212
29 41 66 128 157 168 165 164 167 165 163 155 145 143 141 138 141 166 201 117 88 83 111 127 143 143 139 138 139 143 162 178 186 192 192 197 207 205 215 233 242 255 264 268 269 265 257 255 253 254 249 243 248 246 239 236 239 258 280 291 290 287 292 293 283 286 288 278 299 339 321 302 308 336 360 341 321 307 322 324 304 267 250 229 211 217 219 211
38 55 81 116 141 152 155 159 160 158 155 146 142 144 133 129 155 226 175 117 104 104 104 132 150 150 145 137 138 136 139 176 185 181 190 199 208 220 236 248 271 265 251 254 264 260 258 262 260 259 254 242 244 245 242 242 245 255 267 276 278 267 263 271 262 263 275 272 306 326 317 295 286 317 340 331 315 297 285 298 287 247 210 222 210 210 216 211
45 64 84 110 133 144 150 151 151 152 147 141 143 138 127 134 156 73 115 136 144 129 154 170 157 155 154 150 156 149 131 146 166 174 185 191 201 217 233 238 265 275 255 240 263 272 263 256 253 258 252 235 232 235 240 246 248 250 249 256 270 267 254 257 251 248 264 268 279 306 318 297 283 305 315 313 313 301 288 272 251 228 206 206 202 206 213 212
51 72 83 105 127 137 144 143 145 146 143 143 140 129 127 195 161 98 97 117 185 186 181 175 162 154 149 152 172 169 152 152 153 162 175 183 197 211 228 240 248 266 279 293 297 291 271 232 227 248 250 237 225 223 232 243 237 232 236 243 255 269 273 265 262 255 259 258 250 296 315 294 285 313 314 305 305 291 283 268 240 230 220 205 197 197 203 209
58 77 85 100 121 135 140 141 144 144 145 143 133 126 152 195 127 112 87 76 121 141 153 160 158 150 141 148 182 176 172 189 182 170 174 185 203 217 233 257 252 250 274 288 286 288 280 238 207 233 243 235 226 228 243 265 247 229 234 246 255 270 283 284 295 305 305 309 286 284 307 307 312 330 331 325 319 287 265 259 240 236 227 213 209 203 199 203
62 80 88 94 112 134 136 141 143 141 143 139 130 143 179 127 115 111 87 109 125 115 121 143 146 145 146 151 168 169 168 188 190 182 182 191 202 214 222 248 264 257 260 276 287 291 279 267 249 241 228 205 215 231 243 256 255 237 230 243 255 264 271 278 290 303 306 307 294 270 281 301 313 328 348 352 345 303 267 252 235 230 222 210 206 203 200 203
65 80 84 88 108 134 138 144 141 142 144 136 128 147 137 128 134 128 125 138 133 125 130 140 144 153 158 149 155 172 171 175 179 173 175 188 198 221 231 239 259 253 240 275 300 297 281 274 268 268 245 210 219 232 230 236 241 226 224 237 246 257 271 278 278 276 278 281 273 263 272 293 308 324 356 356 352 329 280 247 235 230 218 208 200 192 192 202
62 74 75 79 102 131 149 150 143 149 145 137 146 152 128 126 142 137 139 142 135 134 135 150 163 162 162 153 151 165 164 168 177 178 183 192 207 229 226 218 228 210 171 274 286 291 299 299 281 271 257 231 230 233 225 230 230 225 237 245 241 250 260 266 271 267 260 263 262 261 274 304 316 327 2 356 347 328 296 255 242 237 231 221 213 208 202 200
53 64 61 64 94 129 149 152 154 155 145 145 176 167 141 131 143 141 140 143 147 146 139 189 164 151 167 163 145 151 157 167 180 184 187 187 206 221 201 189 201 178 88 192 255 287 303 304 289 261 239 224 225 235 232 220 216 224 247 256 250 257 248 232 253 273 269 268 272 270 282 302 303 327 360 357 343 314 283 266 253 242 243 235 223 221 218 216
43 53 45 51 87 122 139 150 159 152 142 147 163 165 155 146 147 151 146 147 155 151 142 183 155 150 168 156 139 157 164 172 180 183 188 187 199 208 193 189 206 213 289 302 273 284 299 300 287 23 339 247 229 233 230 206 195 221 246 241 238 253 256 244 258 275 277 277 280 281 287 297 311 336 345 349 343 312 256 253 257 235 241 245 238 235 230 233
39 50 32 53 83 112 134 143 153 150 158 172 171 171 169 158 151 155 156 158 161 160 167 163 148 147 158 151 152 164 156 162 174 180 208 204 199 207 204 201 208 240 276 311 305 290 292 281 273 286 300 273 236 231 250 243 220 233 236 227 224 229 239 250 257 262 273 282 286 281 278 289 313 317 331 344 343 317 259 246 241 227 234 242 247 249 244 247
38 51 1 71 92 115 126 136 154 155 166 184 183 178 174 168 162 159 159 164 168 183 185 171 164 167 165 160 167 169 156 157 172 177 217 205 197 212 215 211 217 243 277 303 286 288 291 279 280 286 286 272 255 266 282 272 254 256 258 255 256 246 240 244 241 239 252 267 278 284 286 293 290 301 326 344 342 319 277 262 255 246 246 246 251 257 256 257
37 101 271 89 123 139 127 142 166 163 168 178 180 179 177 177 173 166 169 169 167 187 192 192 197 193 193 193 188 184 173 168 189 193 206 205 207 222 223 219 226 237 268 284 266 277 290 287 283 283 280 274 278 289 283 261 251 254 255 256 266 265 255 251 248 243 242 250 266 271 276 289 288 300 326 342 341 324 288 275 276 273 272 269 262 263 265 266
12 258 268 148 158 148 130 145 163 172 187 187 184 186 186 188 184 181 191 189 188 203 207 216 216 211 220 216 207 206 198 207 221 216 218 222 225 233 232 228 235 241 258 276 270 284 294 293 287 288 287 273 273 295 282 241 232 240 245 258 266 263 256 256 266 276 260 247 252 257 258 269 285 305 324 336 340 329 295 282 288 295 298 295 277 271 273 270
3 325 298 197 185 155 147 156 153 172 196 195 194 202 205 210 211 210 216 214 216 220 225 237 235 232 240 235 232 231 220 227 239 230 228 233 236 239 238 240 246 252 256 250 254 275 284 292 293 292 289 262 236 234 200 182 176 272 281 313 295 279 266 259 259 259 255 251 254 260 264 267 288 306 316 327 342 331 299 289 298 314 324 322 294 276 272 264
20 20 351 234 203 174 176 179 169 178 198 202 209 217 223 231 235 237 240 238 237 234 234 242 243 245 252 256 259 255 244 242 247 242 237 238 245 246 245 249 252 253 257 256 261 273 277 282 286 286 283 268 259 261 248 271 301 283 276 301 309 308 287 266 255 243 242 245 250 261 271 278 300 309 308 317 336 316 287 288 300 323 339 333 300 270 261 252
27 41 40 53 173 171 185 192 184 184 195 202 214 224 232 241 244 246 249 251 252 249 247 248 247 250 254 254 259 266 264 258 254 251 245 239 247 253 252 255 255 255 262 266 268 274 276 273 271 271 270 272 282 290 283 288 292 282 276 283 293 301 289 273 256 245 244 246 245 256 269 278 297 305 297 302 307 274 240 267 287 317 342 327 287 257 259 250
21 36 75 102 146 159 177 196 192 192 200 207 217 226 231 242 249 252 253 256 258 259 261 262 259 257 256 254 257 265 266 264 263 261 257 252 254 259 260 261 259 258 265 271 271 271 272 271 270 267 264 266 273 275 271 275 279 277 278 279 283 289 287 270 254 254 263 257 245 247 260 269 285 280 276 287 293 263 214 228 257 294 336 322 284 244 241 239
12 14 52 93 138 155 176 195 194 200 210 213 220 224 226 237 249 255 258 259 260 259 263 269 268 265 264 264 265 267 268 270 270 264 261 261 262 262 263 266 266 264 264 268 270 266 263 268 271 268 266 267 267 266 267 268 269 269 271 275 279 282 282 273 265 266 266 256 252 254 257 267 280 268 268 283 285 252 215 208 223 247 334 325 287 228 203 211
9 18 31 54 99 143 187 209 213 226 232 228 229 227 226 239 251 257 262 266 267 266 261 264 268 267 268 268 268 270 272 271 268 266 266 267 267 267 266 267 270 269 265 263 266 266 265 267 268 267 270 270 265 265 268 267 266 267 266 269 273 274 274 274 273 268 259 256 260 259 256 267 275 267 270 284 274 238 215 206 208 202 19 330 283 217 187 200
14 21 24 38 61 88 100 171 233 268 280 275 272 266 261 262 262 262 265 266 268 271 266 262 265 266 266 267 265 266 268 264 259 266 270 270 272 273 270 264 261 264 265 260 257 261 262 262 264 268 273 272 268 266 265 263 265 266 265 264 265 265 268 269 268 265 262 261 260 255 255 265 268 262 266 275 265 233 214 204 196 180 130 333 268 219 190 196
18 19 20 26 30 28 23 13 26 2 301 289 287 285 286 286 284 285 283 274 268 270 271 269 271 272 271 269 266 263 266 265 261 263 268 267 266 267 266 264 263 264 265 260 254 256 259 262 269 269 269 271 270 266 263 264 267 267 266 265 260 255 254 253 253 261 265 263 259 257 257 258 257 256 259 266 265 237 211 200 194 185 157 159 209 208 194 193
21 21 20 22 17 8 3 1 8 354 302 299 297 292 293 294 295 302 303 295 290 288 287 286 286 286 284 279 276 272 271 271 270 269 270 270 269 268 266 265 264 263 262 259 258 258 255 257 265 265 266 268 266 266 273 275 271 266 263 259 251 244 243 246 253 262 266 263 259 255 249 246 249 252 251 255 261 242 212 200 197 188 166 165 190 193 190 194